SP3ZBZ-13 Weather Reports


time (UTC)temp
F
wind
direction
speed
knots
gust
knots
rain 1hr
in
rain 24hr
in
rain mn
in
humidity
%
barometer
mb
20260905222724 55 264 5.2 9.6 0.00 0.20 0.00 88 1012.0
20260905221223 55 216 6.1 9.6 0.00 0.20 0.00 87 1012.0
20260905215723 56 264 6.1 9.6 0.00 0.20 0.00 87 1011.8
20260905214222 56 252 6.1 11.3 0.00 0.20 0.00 87 1011.8
20260905212721 55 263 5.2 9.6 0.00 0.20 0.00 87 1011.6
20260905211219 55 253 5.2 8.7 0.00 0.20 0.00 87 1011.6
20260905205718 55 258 5.2 9.6 0.00 0.20 0.00 87 1011.4
20260905204217 55 234 5.2 8.7 0.00 0.20 0.00 87 1011.4
20260905202716 55 264 4.3 8.7 0.00 0.20 0.00 88 1011.2
20260905201215 55 270 4.3 7.0 0.00 0.20 0.00 89 1011.1
20260905195714 56 240 4.3 7.0 0.00 0.20 0.00 88 1011.0
20260905194213 56 252 4.3 7.8 0.00 0.20 0.00 88 1010.9
20260905192712 56 276 3.5 7.0 0.00 0.20 0.00 87 1010.8
20260905191211 56 228 3.5 5.2 0.00 0.20 0.00 86 1010.8
20260905185710 56 228 2.6 4.3 0.00 0.20 0.00 84 1010.7
20260905184209 56 252 3.5 5.2 0.00 0.20 0.00 83 1010.6
20260905182708 57 253 4.3 8.7 0.00 0.20 0.00 82 1010.5
20260905181207 56 234 3.5 7.0 0.00 0.20 0.00 83 1010.3
20260905175706 56 270 3.5 5.2 0.00 0.20 0.00 84 1010.1
20260905174205 56 252 3.5 7.0 0.00 0.20 0.00 83 1009.9
20260905172704 57 306 3.5 6.1 0.00 0.20 0.00 83 1009.7
20260905171202 57 240 3.5 7.8 0.00 0.20 0.00 84 1009.7
20260905165702 58 263 4.3 8.7 0.00 0.20 0.00 82 1009.7
20260905164201 58 246 5.2 10.4 0.05 0.20 0.00 83 1009.5
20260905162659 58 270 4.3 8.7 0.05 0.21 0.00 83 1009.4
20260905161158 59 252 8.7 20.0 0.05 0.21 0.00 85 1009.1
20260905155658 59 262 9.6 22.6 0.05 0.33 0.00 85 1008.8
20260905154156 63 240 6.1 12.2 0.00 0.28 0.00 73 1008.2
20260905152655 64 221 7.8 12.2 0.00 0.28 0.00 70 1008.2
20260905151154 64 222 6.1 10.4 0.00 0.28 0.00 71 1008.4
20260905145653 62 210 6.1 11.3 0.00 0.28 0.00 72 1008.4
20260905144152 63 258 7.0 13.0 0.00 0.28 0.00 71 1008.4
20260905142650 64 230 7.8 14.8 0.00 0.28 0.00 68 1008.3
20260905141149 65 252 7.0 11.3 0.00 0.28 0.00 65 1008.2
20260905135649 64 210 7.0 13.0 0.00 0.28 0.00 64 1008.5
20260905134147 64 203 10.4 18.2 0.00 0.28 0.00 64 1008.4
20260905132646 65 226 9.6 19.1 0.00 0.28 0.00 61 1008.3
20260905131145 65 275 10.4 18.2 0.00 0.28 0.00 60 1008.4
20260905125644 65 264 10.4 18.2 0.00 0.28 0.00 65 1008.2
20260905124142 65 266 9.6 20.0 0.00 0.28 0.00 67 1008.2
20260905122641 65 264 7.8 16.5 0.00 0.28 0.00 71 1008.2
20260905121140 63 262 6.1 11.3 0.09 0.28 0.00 71 1008.1
20260905115639 61 252 7.8 17.4 0.09 0.28 0.00 77 1008.3
20260905114139 62 240 5.2 10.4 0.09 0.28 0.00 81 1007.8
20260905112638 60 240 7.0 17.4 0.09 0.28 0.00 84 1008.0
20260905111137 65 222 7.8 13.9 0.00 0.19 0.00 67 1007.6
20260905105636 65 258 7.8 16.5 0.00 0.19 0.00 64 1008.0
20260905104135 65 246 8.7 13.0 0.00 0.19 0.00 63 1008.0
20260905102634 65 255 8.7 13.0 0.00 0.21 0.00 63 1007.9
20260905101133 65 249 7.8 14.8 0.00 0.21 0.00 64 1007.9
20260905095631 65 280 7.8 14.8 0.00 0.21 0.00 65 1007.9
20260905094131 64 260 8.7 17.4 0.00 0.21 0.00 67 1007.8
20260905092629 64 236 7.0 13.9 0.00 0.21 0.00 68 1007.8
20260905091128 63 276 7.8 12.2 0.00 0.21 0.00 70 1007.8
20260905085627 62 248 7.0 11.3 0.00 0.21 0.00 70 1007.5
20260905084126 63 287 7.8 13.9 0.00 0.21 0.00 69 1007.5
20260905082626 62 269 7.8 13.9 0.00 0.21 0.00 71 1007.5
20260905081124 62 258 7.8 13.0 0.00 0.21 0.00 71 1007.4
20260905075623 61 264 7.8 13.9 0.00 0.21 0.00 73 1007.4
20260905074122 62 224 7.8 13.0 0.00 0.21 0.00 72 1007.1
20260905072621 61 227 7.8 13.9 0.00 0.21 0.00 74 1007.1
20260905071121 61 258 7.0 12.2 0.00 0.21 0.00 76 1006.9
20260905065619 61 246 7.8 14.8 0.00 0.21 0.00 76 1006.7
20260905064118 60 246 8.7 14.8 0.00 0.21 0.00 77 1006.6
20260905062617 60 234 7.8 14.8 0.00 0.21 0.00 77 1006.3
20260905061116 60 254 7.8 11.3 0.00 0.21 0.00 78 1006.2
20260905055615 59 262 7.0 12.2 0.00 0.21 0.00 81 1006.0
20260905054114 59 240 6.1 10.4 0.00 0.21 0.00 82 1005.8
20260905052613 58 252 6.1 12.2 0.00 0.21 0.00 83 1005.7
20260905051112 58 258 6.1 11.3 0.00 0.21 0.00 85 1005.5
20260905045611 58 214 6.1 10.4 0.00 0.21 0.00 85 1005.4
20260905044110 58 228 6.1 11.3 0.00 0.21 0.00 85 1005.2
20260905042609 58 240 6.1 9.6 0.00 0.21 0.00 85 1005.0
20260905041108 58 214 6.1 10.4 0.00 0.21 0.00 86 1005.0
20260905035607 57 228 5.2 8.7 0.00 0.21 0.00 85 1004.9
20260905034106 58 240 6.1 9.6 0.00 0.21 0.00 83 1004.6
20260905032605 58 258 5.2 9.6 0.00 0.21 0.00 83 1004.6
20260905031104 57 264 5.2 9.6 0.00 0.21 0.00 83 1004.4
20260905025603 58 252 6.1 12.2 0.00 0.21 0.00 81 1004.4
20260905024102 58 275 6.1 9.6 0.00 0.21 0.00 81 1004.5
20260905022601 58 246 5.2 8.7 0.00 0.21 0.00 82 1004.4
20260905021101 58 264 5.2 8.7 0.00 0.21 0.00 81 1004.2
20260905015600 58 246 5.2 9.6 0.00 0.21 0.00 81 1004.0
20260905014059 58 246 5.2 9.6 0.00 0.21 0.00 82 1003.9
20260905012558 58 248 5.2 11.3 0.00 0.21 0.00 82 1003.7
20260905011057 57 264 5.2 8.7 0.00 0.21 0.00 83 1003.9
20260905005555 58 275 5.2 8.7 0.00 0.21 0.00 84 1003.7
20260905004054 58 264 6.1 11.3 0.00 0.21 0.00 84 1003.5
20260905002554 58 269 6.1 9.6 0.00 0.21 0.00 84 1003.4
20260905001053 59 282 5.2 10.4 0.02 0.21 0.00 85 1003.1
20260904235552 59 252 6.1 12.2 0.06 0.21 0.00 84 1002.9
20260904234051 59 228 8.7 14.8 0.06 0.21 0.00 83 1002.5
20260904232550 60 254 6.1 11.3 0.06 0.21 0.00 92 1002.3
20260904225544 62 258 5.2 9.6 0.00 0.15 0.00 88 1001.5
20260904224043 62 234 5.2 10.4 0.00 0.15 0.00 88 1001.3